Terug naar catalogus

USA 372

ActiefMilitairVLEO
NORAD 59832·PAYLOAD·🇺🇸 United States

Gelanceerd May 22, 2024 vanaf Vandenberg Space Force Base

Loading…

Volgende Passages (komende 24 uur)

TLE

VerouderdSource: Mike McCants

Epoch: Sep 5, 2026, 19:00 UTC

1 59832U 24096U   26248.79197907 0.00000000  00000-0  00000-0 0    02
2 59832  70.0232 124.4346 0003004 244.2510 115.7489 14.96713879    02

Volg USA 372 in realtime met AllMySat

Download on the App Store